Location: Montreal
(45.5087°N, 73.5540°W)
Time: 15:21:13

N. Korean satellite - Visible Passes

Search period start: 20 March 2018 00:00
Search period end: 30 March 2018 00:00
Orbit: 460 x 512 km, 97.2° (Epoch: 19 March)

Date Brightness Start Highest point End Pass type
(mag) Time Alt. Az. Time Alt. Az. Time Alt. Az.
20 Mar 10.6 20:04:06 10° W 20:04:42 10° W 20:05:17 10° W visible
21 Mar 9.8 19:37:56 10° SW 19:40:38 19° W 19:43:23 10° NW visible
24 Mar 10.5 20:01:50 10° WSW 20:02:51 11° W 20:03:52 10° WNW visible
28 Mar 10.4 19:59:39 10° WSW 20:00:57 11° W 20:02:15 10° WNW visible
